Goshen, IN

10:29 AM EDT on April 19, 2018 (GMT -0400)
Goshen Municipal

Weather History for KGSH - May, 2014

Change the Weather History Date:

Thursday, May 1, 2014

  Actual Average Record
Temperature  
Mean Temperature 46 °F -  
Max Temperature 51 °F 66 °F 85 °F (1951)
Min Temperature 41 °F 44 °F 27 °F (1963)
Degree Days  
Heating Degree Days 20    
Moisture  
Dew Point 40 °F    
Average Humidity 78    
Maximum Humidity 89    
Minimum Humidity 63    
Precipitation  
Precipitation 0.05 in - - ()
Sea Level Pressure  
Sea Level Pressure 29.79 in    
Wind  
Wind Speed 14 mph (SW)    
Max Wind Speed 25 mph    
Max Gust Speed 32 mph    
Visibility 9 miles    
Events Rain    
Averages and records for this station are not official NWS values.
T = Trace of Precipitation, MM = Missing Value Source: NWS Daily Summary

Daily Weather History Graph

Daily Weather History Graph

Search for Another Location

Airport or City:

Astronomy

May. 01, 2014 Rise Set
Actual Time 6:40 AM EDT 8:41 PM EDT
Civil Twilight 6:09 AM EDT 9:11 PM EDT
Nautical Twilight 5:33 AM EDT 9:48 PM EDT
Astronomical Twilight 4:53 AM EDT 10:28 PM EDT
Moon 8:26 AM EDT (5/1) 11:14 PM EDT (5/1)
Length of Visible Light 15h 01m
Length of Day
14h 00m
Waxing Crescent, 6% of the Moon is Illuminated
May 1
Waxing Crescent
May 6
First Quarter
May 14
Full
May 21
Last Quarter
May 28
New

Hourly Weather History & Observations

Time (EDT) Temp. Windchill Dew Point Humidity Pressure Visibility Wind Dir Wind Speed Gust Speed Precip Events Conditions
12:53 AM 41.0 °F 35.8 °F 35.1 °F 79% 29.83 in 10.0 mi SW 8.1 mph - N/A   Clear
1:53 AM 42.1 °F 37.1 °F 36.0 °F 79% 29.83 in 10.0 mi SSW 8.1 mph - N/A   Partly Cloudy
2:53 AM 44.1 °F 38.1 °F 37.0 °F 76% 29.79 in 10.0 mi SSW 11.5 mph - N/A   Overcast
3:53 AM 44.1 °F 38.1 °F 37.0 °F 76% 29.77 in 10.0 mi SSW 11.5 mph - N/A   Partly Cloudy
4:53 AM 44.1 °F 38.1 °F 37.0 °F 76% 29.78 in 10.0 mi SSW 11.5 mph - N/A   Overcast
5:53 AM 42.1 °F 35.7 °F 37.0 °F 82% 29.77 in 10.0 mi SSW 11.5 mph - N/A   Partly Cloudy
6:53 AM 44.1 °F 38.6 °F 37.9 °F 79% 29.77 in 10.0 mi SSW 10.4 mph - N/A   Overcast
7:53 AM 45.0 °F 38.5 °F 39.0 °F 80% 29.77 in 10.0 mi SSW 13.8 mph - N/A   Mostly Cloudy
8:53 AM 46.9 °F - 39.0 °F 74% 29.77 in 10.0 mi SSW 15.0 mph 24.2 mph N/A   Mostly Cloudy
9:53 AM 46.9 °F - 39.0 °F 74% 29.77 in 10.0 mi SSW 17.3 mph 25.3 mph N/A   Overcast
10:53 AM 48.9 °F - 39.0 °F 69% 29.76 in 10.0 mi SW 17.3 mph 27.6 mph N/A   Overcast
11:04 AM 48.9 °F - 37.9 °F 66% 29.75 in 10.0 mi SW 20.7 mph 27.6 mph N/A   Overcast
11:16 AM 48.0 °F - 37.9 °F 68% 29.76 in 10.0 mi SW 17.3 mph 26.5 mph N/A   Overcast
11:53 AM 48.0 °F - 37.9 °F 68% 29.77 in 10.0 mi SW 20.7 mph 28.8 mph N/A   Overcast
12:53 PM 50.0 °F - 37.9 °F 63% 29.78 in 10.0 mi SW 23.0 mph 31.1 mph 0.00 in   Overcast
1:06 PM 48.9 °F - 37.9 °F 66% 29.77 in 10.0 mi SW 25.3 mph 32.2 mph N/A   Overcast
1:53 PM 48.9 °F - 39.0 °F 69% 29.78 in 10.0 mi SW 21.9 mph 29.9 mph N/A   Overcast
2:01 PM 50.0 °F - 39.9 °F 68% 29.76 in 10.0 mi WSW 17.3 mph 28.8 mph N/A   Overcast
2:10 PM 50.0 °F - 39.0 °F 66% 29.77 in 10.0 mi SW 25.3 mph 32.2 mph N/A   Overcast
2:53 PM 48.9 °F - 39.0 °F 69% 29.78 in 10.0 mi SW 19.6 mph 29.9 mph N/A   Overcast
3:27 PM 50.0 °F - 39.0 °F 66% 29.78 in 10.0 mi SW 19.6 mph 28.8 mph N/A   Overcast
3:53 PM 48.0 °F - 39.9 °F 74% 29.79 in 10.0 mi WSW 23.0 mph - 0.00 in Rain Light Rain
4:38 PM 48.0 °F - 43.0 °F 83% 29.78 in 9.0 mi WSW 16.1 mph - 0.02 in Rain Light Rain
4:53 PM 48.0 °F - 42.1 °F 80% 29.79 in 10.0 mi SW 13.8 mph - 0.02 in Rain Light Rain
5:29 PM 48.0 °F - 42.1 °F 80% 29.79 in 10.0 mi SW 18.4 mph 24.2 mph 0.00 in Rain Light Rain
5:53 PM 46.9 °F - 43.0 °F 86% 29.80 in 10.0 mi SW 17.3 mph - 0.00 in Rain Light Rain
6:07 PM 46.9 °F - 43.0 °F 86% 29.79 in 10.0 mi SW 20.7 mph - 0.00 in   Overcast
6:53 PM 46.0 °F 39.6 °F 43.0 °F 89% 29.81 in 5.0 mi SW 15.0 mph - 0.01 in Rain Light Rain
7:53 PM 46.9 °F - 43.0 °F 86% 29.81 in 5.0 mi WSW 11.5 mph 20.7 mph 0.00 in Rain Light Rain
8:07 PM 46.9 °F - 43.0 °F 86% 29.80 in 9.0 mi SW 12.7 mph - 0.00 in   Overcast
8:26 PM 46.9 °F - 43.0 °F 86% 29.80 in 10.0 mi SSW 9.2 mph - 0.00 in   Overcast
8:53 PM 46.9 °F - 43.0 °F 86% 29.81 in 9.0 mi SW 16.1 mph - 0.01 in Rain Light Rain
9:53 PM 46.0 °F 39.3 °F 43.0 °F 89% 29.82 in 9.0 mi SW 16.1 mph - 0.00 in Rain Light Rain
10:25 PM 46.0 °F 39.6 °F 43.0 °F 89% 29.82 in 5.0 mi SW 15.0 mph - 0.00 in Rain Light Rain
10:38 PM 46.0 °F 39.6 °F 43.0 °F 89% 29.82 in 8.0 mi WSW 15.0 mph - 0.00 in Rain Light Rain
10:53 PM 46.0 °F 39.3 °F 43.0 °F 89% 29.83 in 9.0 mi WSW 16.1 mph - 0.00 in Rain Light Rain
11:53 PM 46.0 °F 40.2 °F 43.0 °F 89% 29.83 in 10.0 mi WSW 12.7 mph - 0.01 in   Overcast